ARG1364 SABE-SPJC

Flight info

Callsign ARG1364
Flight time 4h 27m
Altitude FL360
Route BIVA4B BIVAM UW8 ERE UT680 TUC UL550 SCO ESEDI3
Aircraft B38M/M-SDE2E3FGHIRWXY/LB1

Departure

Time 2026-04-30 13:47
Airport Aeroparque Jorge Newbery (SABE)

Arrival

Time 2026-04-30 18:14
Airport Jorge Chávez International Airport (SPJC)
Time Latitude Longitude Altitude Speed Heading
2026-04-30 13:27 -34.55682 -58.41487 28 ft 0 kts 13°
2026-04-30 13:38 -34.55722 -58.41485 28 ft 4 kts 329°
2026-04-30 13:39 -34.55750 -58.41442 28 ft 0 kts 298°
2026-04-30 13:42 -34.55740 -58.41465 28 ft 4 kts 297°
2026-04-30 13:43 -34.55723 -58.41507 28 ft 7 kts 287°
2026-04-30 13:43 -34.55744 -58.41564 28 ft 9 kts 218°
2026-04-30 13:43 -34.55784 -58.41625 28 ft 11 kts 275°
2026-04-30 13:43 -34.55752 -58.41717 28 ft 13 kts 296°
2026-04-30 13:44 -34.55701 -58.41821 28 ft 16 kts 304°
2026-04-30 13:44 -34.55635 -58.41940 28 ft 18 kts 304°
2026-04-30 13:44 -34.55567 -58.42057 28 ft 16 kts 306°
2026-04-30 13:44 -34.55498 -58.42170 28 ft 17 kts 307°
2026-04-30 13:45 -34.55374 -58.42374 28 ft 10 kts 293°
2026-04-30 13:45 -34.55362 -58.42462 28 ft 11 kts 267°
2026-04-30 13:45 -34.55411 -58.42492 28 ft 9 kts 134°
2026-04-30 13:46 -34.55450 -58.42429 29 ft 10 kts 123°
2026-04-30 13:46 -34.55577 -58.42200 29 ft 66 kts 124°
2026-04-30 13:46 -34.55952 -58.41526 28 ft 125 kts 124°
2026-04-30 13:46 -34.56526 -58.40490 55 ft 164 kts 123°
2026-04-30 13:47 -34.57191 -58.39463 554 ft 165 kts 124°
2026-04-30 13:47 -34.57835 -58.38188 788 ft 186 kts 110°
2026-04-30 13:47 -34.57964 -58.36692 1419 ft 177 kts 76°
2026-04-30 13:47 -34.57476 -58.35312 1845 ft 186 kts 49°
2026-04-30 13:48 -34.56414 -58.34311 2169 ft 205 kts 24°
2026-04-30 13:48 -34.55102 -58.33394 2506 ft 233 kts 30°
2026-04-30 13:48 -34.53698 -58.32314 3257 ft 238 kts 30°
2026-04-30 13:48 -34.52250 -58.31207 3873 ft 256 kts 30°
2026-04-30 13:49 -34.50700 -58.30022 4467 ft 271 kts 30°
2026-04-30 13:49 -34.49055 -58.28912 5297 ft 273 kts 16°
2026-04-30 13:49 -34.47197 -58.28687 6101 ft 269 kts 347°
2026-04-30 13:49 -34.45454 -58.29476 6818 ft 271 kts 325°
2026-04-30 13:50 -34.43870 -58.30727 7588 ft 274 kts 324°
2026-04-30 13:50 -34.40645 -58.33312 9107 ft 283 kts 323°
2026-04-30 13:50 -34.39003 -58.34647 9857 ft 287 kts 322°
2026-04-30 13:51 -34.37330 -58.36015 10419 ft 298 kts 322°
2026-04-30 13:51 -34.35614 -58.37420 10685 ft 317 kts 322°
2026-04-30 13:51 -34.33729 -58.38966 10929 ft 336 kts 322°
2026-04-30 13:51 -34.31762 -58.40579 11324 ft 349 kts 322°
2026-04-30 13:52 -34.29752 -58.42228 12025 ft 350 kts 321°
2026-04-30 13:52 -34.27732 -58.43884 12656 ft 354 kts 321°
2026-04-30 13:52 -34.25689 -58.45557 13336 ft 357 kts 321°
2026-04-30 13:52 -34.23627 -58.47246 13975 ft 360 kts 321°
2026-04-30 13:53 -34.21552 -58.48943 14553 ft 362 kts 321°
2026-04-30 13:53 -34.19469 -58.50647 15172 ft 363 kts 320°
2026-04-30 13:53 -34.17376 -58.52357 15756 ft 365 kts 320°
2026-04-30 13:53 -34.15380 -58.54210 16309 ft 359 kts 308°
2026-04-30 13:54 -34.13975 -58.56630 16843 ft 351 kts 290°
2026-04-30 13:54 -34.13311 -58.59429 17340 ft 348 kts 274°
2026-04-30 13:54 -34.13308 -58.62334 17865 ft 348 kts 265°
2026-04-30 13:54 -34.13496 -58.65249 18379 ft 350 kts 264°
2026-04-30 13:55 -34.13747 -58.68165 18825 ft 351 kts 263°
2026-04-30 13:55 -34.14035 -58.71090 19245 ft 353 kts 263°
2026-04-30 13:55 -34.14342 -58.74040 19672 ft 355 kts 263°
2026-04-30 13:55 -34.14493 -58.77010 20076 ft 358 kts 274°
2026-04-30 13:56 -34.13891 -58.79920 20515 ft 363 kts 291°
2026-04-30 13:56 -34.12527 -58.82509 20938 ft 372 kts 307°
2026-04-30 13:56 -34.10532 -58.84549 21388 ft 383 kts 321°
2026-04-30 13:56 -34.08286 -58.86278 21813 ft 385 kts 321°
2026-04-30 13:57 -34.06012 -58.87998 22210 ft 388 kts 322°
2026-04-30 13:57 -34.03715 -58.89709 22626 ft 390 kts 322°
2026-04-30 13:57 -34.01405 -58.91412 23021 ft 392 kts 322°
2026-04-30 13:57 -33.99074 -58.93120 23414 ft 394 kts 322°
2026-04-30 13:58 -33.96734 -58.94833 23774 ft 395 kts 322°
2026-04-30 13:58 -33.92024 -58.98280 24440 ft 398 kts 322°
2026-04-30 13:58 -33.89653 -59.00014 24761 ft 400 kts 322°
2026-04-30 13:59 -33.87274 -59.01751 25078 ft 402 kts 322°
2026-04-30 13:59 -33.84884 -59.03496 25394 ft 404 kts 322°
2026-04-30 13:59 -33.82482 -59.05248 25705 ft 405 kts 322°
2026-04-30 13:59 -33.80073 -59.07005 26009 ft 407 kts 322°
2026-04-30 14:00 -33.77653 -59.08768 26310 ft 409 kts 323°
2026-04-30 14:00 -33.72783 -59.12311 26905 ft 412 kts 322°
2026-04-30 14:00 -33.70333 -59.14093 27182 ft 413 kts 322°
2026-04-30 14:01 -33.67871 -59.15882 27475 ft 415 kts 322°
2026-04-30 14:01 -33.65403 -59.17673 27763 ft 417 kts 323°
2026-04-30 14:01 -33.62923 -59.19473 28027 ft 419 kts 323°
2026-04-30 14:01 -33.60430 -59.21281 28304 ft 420 kts 323°
2026-04-30 14:02 -33.57929 -59.23093 28574 ft 422 kts 323°
2026-04-30 14:02 -33.55419 -59.24909 28835 ft 423 kts 323°
2026-04-30 14:02 -33.52897 -59.26735 29098 ft 425 kts 323°
2026-04-30 14:02 -33.50367 -59.28564 29357 ft 427 kts 323°
2026-04-30 14:03 -33.47826 -59.30400 29623 ft 428 kts 323°
2026-04-30 14:03 -33.45273 -59.32244 29883 ft 429 kts 323°
2026-04-30 14:03 -33.42723 -59.34084 30199 ft 429 kts 323°
2026-04-30 14:03 -33.40176 -59.35920 30538 ft 427 kts 323°
2026-04-30 14:04 -33.37640 -59.37747 30874 ft 426 kts 323°
2026-04-30 14:04 -33.35111 -59.39568 31205 ft 424 kts 323°
2026-04-30 14:04 -33.32598 -59.41377 31535 ft 422 kts 323°
2026-04-30 14:04 -33.30090 -59.43180 31875 ft 420 kts 323°
2026-04-30 14:05 -33.27597 -59.44972 32205 ft 418 kts 323°
2026-04-30 14:05 -33.25113 -59.46755 32518 ft 417 kts 323°
2026-04-30 14:05 -33.22641 -59.48530 32828 ft 415 kts 323°
2026-04-30 14:05 -33.20175 -59.50298 33133 ft 413 kts 323°
2026-04-30 14:06 -33.17722 -59.52056 33443 ft 412 kts 323°
2026-04-30 14:06 -33.12836 -59.55555 34008 ft 409 kts 323°
2026-04-30 14:07 -33.05556 -59.60759 34068 ft 406 kts 323°
2026-04-30 14:08 -32.98289 -59.65943 34062 ft 407 kts 323°
2026-04-30 14:08 -32.91011 -59.71125 34063 ft 407 kts 324°
2026-04-30 14:09 -32.86157 -59.74576 34062 ft 407 kts 324°
2026-04-30 14:10 -32.78870 -59.79748 34061 ft 408 kts 324°
2026-04-30 14:10 -32.74003 -59.83197 34058 ft 408 kts 324°
2026-04-30 14:11 -32.69136 -59.86642 34060 ft 408 kts 324°
2026-04-30 14:11 -32.64266 -59.90085 34054 ft 408 kts 324°
2026-04-30 14:12 -32.59393 -59.93526 34057 ft 409 kts 324°
2026-04-30 14:12 -32.54516 -59.96968 34058 ft 409 kts 324°
2026-04-30 14:13 -32.49636 -60.00409 34053 ft 409 kts 324°
2026-04-30 14:13 -32.44752 -60.03848 34053 ft 409 kts 324°
2026-04-30 14:14 -32.39861 -60.07288 34054 ft 410 kts 324°
2026-04-30 14:14 -32.34969 -60.10724 34053 ft 410 kts 325°
2026-04-30 14:15 -32.30067 -60.14164 34050 ft 410 kts 325°
2026-04-30 14:15 -32.25162 -60.17601 34055 ft 411 kts 325°
2026-04-30 14:16 -32.20258 -60.21032 34056 ft 411 kts 325°
2026-04-30 14:16 -32.15344 -60.24466 34052 ft 411 kts 325°
2026-04-30 14:17 -32.10432 -60.27894 34054 ft 411 kts 325°
2026-04-30 14:17 -32.05516 -60.31321 34053 ft 411 kts 325°
2026-04-30 14:18 -32.00596 -60.34747 34049 ft 412 kts 326°
2026-04-30 14:18 -31.93211 -60.39881 34045 ft 412 kts 326°
2026-04-30 14:19 -31.85817 -60.45011 34046 ft 412 kts 326°
2026-04-30 14:20 -31.80907 -60.48453 34044 ft 411 kts 323°
2026-04-30 14:20 -31.73740 -60.53961 34046 ft 411 kts 324°
2026-04-30 14:21 -31.68951 -60.57607 34050 ft 411 kts 324°
2026-04-30 14:22 -31.61762 -60.63069 34051 ft 411 kts 324°
2026-04-30 14:22 -31.54570 -60.68523 34047 ft 411 kts 324°
2026-04-30 14:23 -31.44977 -60.75782 34053 ft 411 kts 324°
2026-04-30 14:24 -31.37779 -60.81217 34051 ft 411 kts 324°
2026-04-30 14:25 -31.28178 -60.88451 34056 ft 411 kts 324°
2026-04-30 14:26 -31.20974 -60.93868 34051 ft 411 kts 324°
2026-04-30 14:27 -31.13765 -60.99277 34050 ft 412 kts 325°
2026-04-30 14:27 -31.08956 -61.02881 34049 ft 412 kts 325°
2026-04-30 14:28 -31.01736 -61.08281 34052 ft 412 kts 325°
2026-04-30 14:28 -30.96924 -61.11873 34053 ft 412 kts 325°
2026-04-30 14:29 -30.88093 -61.18454 34049 ft 412 kts 325°
2026-04-30 14:31 -30.75234 -61.28010 34047 ft 412 kts 325°
2026-04-30 14:31 -30.67999 -61.33373 34050 ft 412 kts 325°
2026-04-30 14:32 -30.60757 -61.38732 34048 ft 412 kts 325°
2026-04-30 14:33 -30.55931 -61.42298 34048 ft 412 kts 325°
2026-04-30 14:33 -30.48681 -61.47647 34048 ft 412 kts 325°
2026-04-30 14:34 -30.43845 -61.51209 34047 ft 413 kts 325°
2026-04-30 14:34 -30.39014 -61.54764 34048 ft 412 kts 324°
2026-04-30 14:35 -30.31758 -61.60095 34044 ft 412 kts 324°
2026-04-30 14:36 -30.26922 -61.63643 34042 ft 412 kts 324°
2026-04-30 14:36 -30.22084 -61.67187 34039 ft 412 kts 324°
2026-04-30 14:37 -30.17248 -61.70727 34039 ft 412 kts 324°
2026-04-30 14:37 -30.12412 -61.74262 34042 ft 412 kts 324°
2026-04-30 14:38 -30.07573 -61.77795 34044 ft 412 kts 324°
2026-04-30 14:38 -30.02735 -61.81324 34040 ft 412 kts 324°
2026-04-30 14:39 -29.97900 -61.84846 34037 ft 412 kts 324°
2026-04-30 14:39 -29.93067 -61.88363 34039 ft 412 kts 324°
2026-04-30 14:40 -29.86058 -61.93954 34040 ft 405 kts 313°
2026-04-30 14:40 -29.81961 -61.98423 34033 ft 407 kts 314°
2026-04-30 14:41 -29.77860 -62.02900 34036 ft 407 kts 314°
2026-04-30 14:41 -29.73765 -62.07373 34033 ft 407 kts 314°
2026-04-30 14:42 -29.69667 -62.11844 34032 ft 407 kts 314°
2026-04-30 14:42 -29.65573 -62.16308 34033 ft 407 kts 314°
2026-04-30 14:43 -29.61474 -62.20769 34036 ft 406 kts 314°
2026-04-30 14:43 -29.57377 -62.25225 34038 ft 406 kts 314°
2026-04-30 14:44 -29.53277 -62.29677 34029 ft 406 kts 314°
2026-04-30 14:44 -29.49177 -62.34126 34032 ft 407 kts 314°
2026-04-30 14:45 -29.45072 -62.38575 34032 ft 406 kts 314°
2026-04-30 14:45 -29.40967 -62.43017 34028 ft 407 kts 314°
2026-04-30 14:46 -29.36862 -62.47454 34029 ft 407 kts 314°
2026-04-30 14:46 -29.32756 -62.51889 34029 ft 407 kts 314°
2026-04-30 14:47 -29.28643 -62.56324 34023 ft 407 kts 314°
2026-04-30 14:47 -29.24531 -62.60755 34022 ft 407 kts 314°
2026-04-30 14:48 -29.20416 -62.65182 34026 ft 407 kts 314°
2026-04-30 14:48 -29.16302 -62.69604 34023 ft 407 kts 314°
2026-04-30 14:49 -29.12183 -62.74026 34037 ft 407 kts 314°
2026-04-30 14:49 -29.08065 -62.78442 34026 ft 407 kts 314°
2026-04-30 14:50 -29.01889 -62.85057 34013 ft 407 kts 314°
2026-04-30 14:51 -28.95702 -62.91668 34016 ft 407 kts 314°
2026-04-30 14:52 -28.89514 -62.98269 34012 ft 407 kts 314°
2026-04-30 14:52 -28.83334 -63.04850 34017 ft 406 kts 314°
2026-04-30 14:53 -28.77134 -63.11442 34009 ft 407 kts 314°
2026-04-30 14:54 -28.68877 -63.20204 34012 ft 406 kts 315°
2026-04-30 14:55 -28.62682 -63.26763 34013 ft 406 kts 315°
2026-04-30 14:56 -28.54425 -63.35490 34004 ft 406 kts 315°
2026-04-30 14:57 -28.48228 -63.42027 34004 ft 406 kts 315°
2026-04-30 14:58 -28.39967 -63.50723 34004 ft 406 kts 315°
2026-04-30 14:58 -28.33768 -63.57237 33998 ft 405 kts 315°
2026-04-30 15:00 -28.23443 -63.68060 34000 ft 405 kts 315°
2026-04-30 15:01 -28.15190 -63.76692 33995 ft 404 kts 315°
2026-04-30 15:01 -28.08999 -63.83155 33993 ft 405 kts 315°
2026-04-30 15:02 -28.04876 -63.87467 33991 ft 404 kts 315°
2026-04-30 15:03 -27.94582 -63.98234 33991 ft 403 kts 315°
2026-04-30 15:04 -27.84299 -64.08961 33991 ft 403 kts 315°
2026-04-30 15:06 -27.74027 -64.19646 33991 ft 402 kts 315°
2026-04-30 15:07 -27.65814 -64.28170 33993 ft 402 kts 315°
2026-04-30 15:08 -27.57607 -64.36669 33988 ft 401 kts 315°
2026-04-30 15:09 -27.47353 -64.47263 33978 ft 401 kts 315°
2026-04-30 15:10 -27.39152 -64.55716 33972 ft 400 kts 316°
2026-04-30 15:11 -27.26800 -64.68294 33970 ft 400 kts 316°
2026-04-30 15:13 -27.16484 -64.78731 33964 ft 400 kts 316°
2026-04-30 15:14 -27.02013 -64.93326 33965 ft 400 kts 316°
2026-04-30 15:17 -26.83295 -65.11954 33972 ft 402 kts 319°
2026-04-30 15:19 -26.65968 -65.27785 33975 ft 403 kts 319°
2026-04-30 17:39 -14.31583 -75.75638 35916 ft 418 kts 323°
2026-04-30 17:42 -14.08554 -75.93880 35916 ft 419 kts 323°
2026-04-30 17:43 -13.97014 -76.03003 35924 ft 419 kts 323°
2026-04-30 17:44 -13.83150 -76.13949 35934 ft 420 kts 323°
2026-04-30 17:47 -13.61461 -76.29043 35934 ft 420 kts 328°
2026-04-30 17:48 -13.44081 -76.40169 35928 ft 426 kts 328°
2026-04-30 17:49 -13.34077 -76.46565 34318 ft 427 kts 328°
2026-04-30 17:50 -13.23729 -76.53177 30532 ft 450 kts 327°
2026-04-30 17:51 -13.15734 -76.58276 28426 ft 446 kts 327°
2026-04-30 17:52 -13.07978 -76.63222 26869 ft 433 kts 327°
2026-04-30 17:53 -12.95420 -76.71222 24387 ft 420 kts 328°
2026-04-30 17:54 -12.85599 -76.77472 22447 ft 411 kts 329°
2026-04-30 17:55 -12.76047 -76.83545 20726 ft 399 kts 329°
2026-04-30 17:56 -12.66745 -76.89454 19086 ft 390 kts 330°
2026-04-30 17:57 -12.59919 -76.93788 18158 ft 377 kts 330°
2026-04-30 17:58 -12.53046 -76.97437 16783 ft 373 kts 336°
2026-04-30 17:59 -12.43786 -77.02036 14754 ft 359 kts 335°
2026-04-30 18:00 -12.35459 -77.06193 12802 ft 334 kts 334°
2026-04-30 18:00 -12.29397 -77.09218 11448 ft 314 kts 334°
2026-04-30 18:01 -12.25559 -77.11133 10602 ft 302 kts 334°
2026-04-30 18:02 -12.20062 -77.13873 9295 ft 286 kts 333°
2026-04-30 18:02 -12.14746 -77.16522 8146 ft 285 kts 333°
2026-04-30 18:03 -12.09357 -77.19206 6954 ft 291 kts 334°
2026-04-30 18:04 -12.03774 -77.21974 5506 ft 303 kts 334°
2026-04-30 18:05 -11.96439 -77.25747 4595 ft 280 kts 333°
2026-04-30 18:06 -11.89987 -77.29030 4200 ft 239 kts 334°
2026-04-30 18:07 -11.84141 -77.30427 3570 ft 224 kts 32°
2026-04-30 18:08 -11.81632 -77.26459 2792 ft 229 kts 63°
2026-04-30 18:09 -11.83693 -77.21816 2290 ft 188 kts 153°
2026-04-30 18:10 -11.87953 -77.19672 2105 ft 166 kts 155°
2026-04-30 18:11 -11.92093 -77.17622 1985 ft 161 kts 155°
2026-04-30 18:11 -11.95078 -77.16144 1360 ft 157 kts 157°
2026-04-30 18:12 -11.98035 -77.14682 734 ft 158 kts 157°
2026-04-30 18:13 -11.99989 -77.13706 351 ft 156 kts 156°
2026-04-30 18:13 -12.02360 -77.12543 40 ft 93 kts 154°
2026-04-30 18:14 -12.02758 -77.12243 55 ft 14 kts 119°
2026-04-30 18:15 -12.02504 -77.12287 52 ft 19 kts 336°
2026-04-30 18:15 -12.02179 -77.12452 47 ft 18 kts 332°
2026-04-30 18:16 -12.02079 -77.12349 55 ft 10 kts 65°
2026-04-30 18:16 -12.02027 -77.12235 59 ft 9 kts 65°
2026-04-30 18:17 -12.01997 -77.12171 63 ft 11 kts 65°
2026-04-30 18:17 -12.01964 -77.12103 66 ft 10 kts 60°
2026-04-30 18:17 -12.01904 -77.11986 72 ft 8 kts 64°
2026-04-30 18:18 -12.01883 -77.11943 65 ft 7 kts 64°
2026-04-30 18:18 -12.01860 -77.11893 69 ft 9 kts 64°
2026-04-30 18:18 -12.01828 -77.11822 71 ft 14 kts 75°
2026-04-30 18:18 -12.01911 -77.11743 70 ft 22 kts 155°
2026-04-30 18:19 -12.02023 -77.11689 74 ft 18 kts 155°
2026-04-30 18:19 -12.02133 -77.11635 84 ft 17 kts 153°
2026-04-30 18:19 -12.02238 -77.11579 88 ft 17 kts 153°
2026-04-30 18:19 -12.02346 -77.11529 91 ft 17 kts 155°
2026-04-30 18:20 -12.02448 -77.11476 93 ft 16 kts 149°
2026-04-30 18:20 -12.02539 -77.11428 97 ft 14 kts 153°
2026-04-30 18:20 -12.02543 -77.11347 96 ft 13 kts 69°
2026-04-30 18:20 -12.02504 -77.11259 98 ft 14 kts 65°
2026-04-30 18:21 -12.02457 -77.11160 95 ft 14 kts 64°
2026-04-30 18:21 -12.02391 -77.11115 93 ft 13 kts 352°
2026-04-30 18:21 -12.02313 -77.11088 94 ft 8 kts 69°
2026-04-30 18:21 -12.02293 -77.11038 93 ft 7 kts 61°
2026-04-30 18:22 -12.02278 -77.11006 90 ft 3 kts 68°
2026-04-30 18:22 -12.02274 -77.10997 90 ft 2 kts 66°
2026-04-30 18:22 -12.02274 -77.10995 90 ft 0 kts 66°